<?xml version="1.0" encoding="UTF-8" standalone="no" ?>
<gpx xmlns="http://www.topografix.com/GPX/1/1" xmlns:xsi="http://www.w3.org/2001/XMLSchema-instance" xsi:schemaLocation="http://www.topografix.com/GPX/1/1 http://www.topografix.com/GPX/1/1/gpx.xsd" version="1.1" creator="VisuGPX - https://www.visugpx.com">
  <metadata>
    <name>Rochefort 8 km GNE</name>
  </metadata>
  <trk>
    <name><![CDATA[Rochefort Pont Transbordeur 8 km GNE-20056099]]></name>
    <trkseg>
      <trkpt lat="45.91733" lon="-0.96061">
        <ele>4</ele>
        <time>2024-10-14T17:28:23Z</time>
      </trkpt>
      <trkpt lat="45.91717" lon="-0.9605">
        <ele>2</ele>
        <time>2024-10-14T17:28:47Z</time>
      </trkpt>
      <trkpt lat="45.91715" lon="-0.9606">
        <ele>2</ele>
        <time>2024-10-14T17:28:56Z</time>
      </trkpt>
      <trkpt lat="45.91714" lon="-0.96072">
        <ele>3</ele>
        <time>2024-10-14T17:29:08Z</time>
      </trkpt>
      <trkpt lat="45.91687" lon="-0.96076">
        <ele>6</ele>
        <time>2024-10-14T17:29:44Z</time>
      </trkpt>
      <trkpt lat="45.91687" lon="-0.96076">
        <ele>6</ele>
        <time>2024-10-14T17:29:44Z</time>
      </trkpt>
      <trkpt lat="45.9168" lon="-0.96076">
        <ele>7</ele>
        <time>2024-10-14T17:29:53Z</time>
      </trkpt>
      <trkpt lat="45.91538" lon="-0.96066">
        <ele>12</ele>
        <time>2024-10-14T17:33:03Z</time>
      </trkpt>
      <trkpt lat="45.91537" lon="-0.96066">
        <ele>12</ele>
        <time>2024-10-14T17:33:04Z</time>
      </trkpt>
      <trkpt lat="45.91537" lon="-0.96066">
        <ele>12</ele>
        <time>2024-10-14T17:33:04Z</time>
      </trkpt>
      <trkpt lat="45.91526" lon="-0.96064">
        <ele>12</ele>
        <time>2024-10-14T17:33:19Z</time>
      </trkpt>
      <trkpt lat="45.91497" lon="-0.96043">
        <ele>12</ele>
        <time>2024-10-14T17:34:02Z</time>
      </trkpt>
      <trkpt lat="45.9137" lon="-0.95954">
        <ele>10</ele>
        <time>2024-10-14T17:37:11Z</time>
      </trkpt>
      <trkpt lat="45.9137" lon="-0.95954">
        <ele>10</ele>
        <time>2024-10-14T17:37:11Z</time>
      </trkpt>
      <trkpt lat="45.91366" lon="-0.95951">
        <ele>10</ele>
        <time>2024-10-14T17:37:17Z</time>
      </trkpt>
      <trkpt lat="45.91362" lon="-0.95944">
        <ele>10</ele>
        <time>2024-10-14T17:37:25Z</time>
      </trkpt>
      <trkpt lat="45.91301" lon="-0.95944">
        <ele>11</ele>
        <time>2024-10-14T17:38:47Z</time>
      </trkpt>
      <trkpt lat="45.91256" lon="-0.95946">
        <ele>10</ele>
        <time>2024-10-14T17:39:47Z</time>
      </trkpt>
      <trkpt lat="45.91213" lon="-0.95948">
        <ele>9</ele>
        <time>2024-10-14T17:40:44Z</time>
      </trkpt>
      <trkpt lat="45.91069" lon="-0.95953">
        <ele>8</ele>
        <time>2024-10-14T17:43:57Z</time>
      </trkpt>
      <trkpt lat="45.91064" lon="-0.95956">
        <ele>9</ele>
        <time>2024-10-14T17:44:04Z</time>
      </trkpt>
      <trkpt lat="45.91061" lon="-0.95959">
        <ele>9</ele>
        <time>2024-10-14T17:44:09Z</time>
      </trkpt>
      <trkpt lat="45.91054" lon="-0.9598">
        <ele>9</ele>
        <time>2024-10-14T17:44:30Z</time>
      </trkpt>
      <trkpt lat="45.91039" lon="-0.95974">
        <ele>9</ele>
        <time>2024-10-14T17:44:51Z</time>
      </trkpt>
      <trkpt lat="45.91022" lon="-0.95968">
        <ele>8</ele>
        <time>2024-10-14T17:45:14Z</time>
      </trkpt>
      <trkpt lat="45.90985" lon="-0.9596">
        <ele>8</ele>
        <time>2024-10-14T17:46:04Z</time>
      </trkpt>
      <trkpt lat="45.90951" lon="-0.95957">
        <ele>8</ele>
        <time>2024-10-14T17:46:50Z</time>
      </trkpt>
      <trkpt lat="45.90916" lon="-0.95959">
        <ele>8</ele>
        <time>2024-10-14T17:47:36Z</time>
      </trkpt>
      <trkpt lat="45.90915" lon="-0.95959">
        <ele>8</ele>
        <time>2024-10-14T17:47:38Z</time>
      </trkpt>
      <trkpt lat="45.90895" lon="-0.95954">
        <ele>8</ele>
        <time>2024-10-14T17:48:05Z</time>
      </trkpt>
      <trkpt lat="45.90892" lon="-0.95939">
        <ele>7</ele>
        <time>2024-10-14T17:48:19Z</time>
      </trkpt>
      <trkpt lat="45.9086" lon="-0.95897">
        <ele>6</ele>
        <time>2024-10-14T17:49:17Z</time>
      </trkpt>
      <trkpt lat="45.90853" lon="-0.95884">
        <ele>7</ele>
        <time>2024-10-14T17:49:33Z</time>
      </trkpt>
      <trkpt lat="45.9085" lon="-0.95872">
        <ele>7</ele>
        <time>2024-10-14T17:49:44Z</time>
      </trkpt>
      <trkpt lat="45.90849" lon="-0.95868">
        <ele>7</ele>
        <time>2024-10-14T17:49:48Z</time>
      </trkpt>
      <trkpt lat="45.90847" lon="-0.95843">
        <ele>7</ele>
        <time>2024-10-14T17:50:12Z</time>
      </trkpt>
      <trkpt lat="45.90859" lon="-0.95838">
        <ele>7</ele>
        <time>2024-10-14T17:50:28Z</time>
      </trkpt>
      <trkpt lat="45.90903" lon="-0.95802">
        <ele>8</ele>
        <time>2024-10-14T17:51:36Z</time>
      </trkpt>
      <trkpt lat="45.90976" lon="-0.95725">
        <ele>9</ele>
        <time>2024-10-14T17:53:37Z</time>
      </trkpt>
      <trkpt lat="45.91029" lon="-0.95675">
        <ele>9</ele>
        <time>2024-10-14T17:55:01Z</time>
      </trkpt>
      <trkpt lat="45.91066" lon="-0.95639">
        <ele>9</ele>
        <time>2024-10-14T17:56:01Z</time>
      </trkpt>
      <trkpt lat="45.91105" lon="-0.95612">
        <ele>8</ele>
        <time>2024-10-14T17:56:59Z</time>
      </trkpt>
      <trkpt lat="45.91145" lon="-0.95589">
        <ele>8</ele>
        <time>2024-10-14T17:57:56Z</time>
      </trkpt>
      <trkpt lat="45.91155" lon="-0.95582">
        <ele>8</ele>
        <time>2024-10-14T17:58:11Z</time>
      </trkpt>
      <trkpt lat="45.91186" lon="-0.95525">
        <ele>9</ele>
        <time>2024-10-14T17:59:18Z</time>
      </trkpt>
      <trkpt lat="45.91204" lon="-0.95481">
        <ele>9</ele>
        <time>2024-10-14T18:00:06Z</time>
      </trkpt>
      <trkpt lat="45.91219" lon="-0.95451">
        <ele>9</ele>
        <time>2024-10-14T18:00:40Z</time>
      </trkpt>
      <trkpt lat="45.9127" lon="-0.95385">
        <ele>8</ele>
        <time>2024-10-14T18:02:12Z</time>
      </trkpt>
      <trkpt lat="45.91313" lon="-0.95312">
        <ele>8</ele>
        <time>2024-10-14T18:03:40Z</time>
      </trkpt>
      <trkpt lat="45.91336" lon="-0.95251">
        <ele>8</ele>
        <time>2024-10-14T18:04:45Z</time>
      </trkpt>
      <trkpt lat="45.91348" lon="-0.95225">
        <ele>7</ele>
        <time>2024-10-14T18:05:14Z</time>
      </trkpt>
      <trkpt lat="45.9136" lon="-0.95209">
        <ele>7</ele>
        <time>2024-10-14T18:05:36Z</time>
      </trkpt>
      <trkpt lat="45.91382" lon="-0.95191">
        <ele>5</ele>
        <time>2024-10-14T18:06:09Z</time>
      </trkpt>
      <trkpt lat="45.91392" lon="-0.95175">
        <ele>5</ele>
        <time>2024-10-14T18:06:29Z</time>
      </trkpt>
      <trkpt lat="45.91413" lon="-0.95104">
        <ele>5</ele>
        <time>2024-10-14T18:07:41Z</time>
      </trkpt>
      <trkpt lat="45.91428" lon="-0.95044">
        <ele>4</ele>
        <time>2024-10-14T18:08:40Z</time>
      </trkpt>
      <trkpt lat="45.91436" lon="-0.94988">
        <ele>4</ele>
        <time>2024-10-14T18:09:33Z</time>
      </trkpt>
      <trkpt lat="45.91436" lon="-0.94965">
        <ele>3</ele>
        <time>2024-10-14T18:09:55Z</time>
      </trkpt>
      <trkpt lat="45.91433" lon="-0.94929">
        <ele>3</ele>
        <time>2024-10-14T18:10:28Z</time>
      </trkpt>
      <trkpt lat="45.91428" lon="-0.94872">
        <ele>3</ele>
        <time>2024-10-14T18:11:22Z</time>
      </trkpt>
      <trkpt lat="45.91401" lon="-0.94673">
        <ele>5</ele>
        <time>2024-10-14T18:14:30Z</time>
      </trkpt>
      <trkpt lat="45.91404" lon="-0.94629">
        <ele>4</ele>
        <time>2024-10-14T18:15:11Z</time>
      </trkpt>
      <trkpt lat="45.91399" lon="-0.94557">
        <ele>4</ele>
        <time>2024-10-14T18:16:18Z</time>
      </trkpt>
      <trkpt lat="45.91386" lon="-0.9445">
        <ele>3</ele>
        <time>2024-10-14T18:17:59Z</time>
      </trkpt>
      <trkpt lat="45.91369" lon="-0.94351">
        <ele>3</ele>
        <time>2024-10-14T18:19:34Z</time>
      </trkpt>
      <trkpt lat="45.91362" lon="-0.94302">
        <ele>3</ele>
        <time>2024-10-14T18:20:20Z</time>
      </trkpt>
      <trkpt lat="45.91372" lon="-0.94278">
        <ele>3</ele>
        <time>2024-10-14T18:20:46Z</time>
      </trkpt>
      <trkpt lat="45.91392" lon="-0.94205">
        <ele>3</ele>
        <time>2024-10-14T18:21:59Z</time>
      </trkpt>
      <trkpt lat="45.91406" lon="-0.94166">
        <ele>2</ele>
        <time>2024-10-14T18:22:40Z</time>
      </trkpt>
      <trkpt lat="45.91416" lon="-0.94145">
        <ele>2</ele>
        <time>2024-10-14T18:23:03Z</time>
      </trkpt>
      <trkpt lat="45.91468" lon="-0.94059">
        <ele>4</ele>
        <time>2024-10-14T18:24:49Z</time>
      </trkpt>
      <trkpt lat="45.91451" lon="-0.94041">
        <ele>4</ele>
        <time>2024-10-14T18:25:17Z</time>
      </trkpt>
      <trkpt lat="45.91419" lon="-0.94001">
        <ele>5</ele>
        <time>2024-10-14T18:26:14Z</time>
      </trkpt>
      <trkpt lat="45.91392" lon="-0.93963">
        <ele>5</ele>
        <time>2024-10-14T18:27:04Z</time>
      </trkpt>
      <trkpt lat="45.91342" lon="-0.93878">
        <ele>5</ele>
        <time>2024-10-14T18:28:47Z</time>
      </trkpt>
      <trkpt lat="45.91298" lon="-0.93822">
        <ele>5</ele>
        <time>2024-10-14T18:30:06Z</time>
      </trkpt>
      <trkpt lat="45.91277" lon="-0.93802">
        <ele>5</ele>
        <time>2024-10-14T18:30:40Z</time>
      </trkpt>
      <trkpt lat="45.91266" lon="-0.93796">
        <ele>6</ele>
        <time>2024-10-14T18:30:55Z</time>
      </trkpt>
      <trkpt lat="45.91251" lon="-0.938">
        <ele>6</ele>
        <time>2024-10-14T18:31:16Z</time>
      </trkpt>
      <trkpt lat="45.9124" lon="-0.93798">
        <ele>7</ele>
        <time>2024-10-14T18:31:30Z</time>
      </trkpt>
      <trkpt lat="45.91208" lon="-0.93783">
        <ele>8</ele>
        <time>2024-10-14T18:32:15Z</time>
      </trkpt>
      <trkpt lat="45.91199" lon="-0.93787">
        <ele>8</ele>
        <time>2024-10-14T18:32:28Z</time>
      </trkpt>
      <trkpt lat="45.91185" lon="-0.93801">
        <ele>9</ele>
        <time>2024-10-14T18:32:51Z</time>
      </trkpt>
      <trkpt lat="45.91161" lon="-0.93813">
        <ele>10</ele>
        <time>2024-10-14T18:33:25Z</time>
      </trkpt>
      <trkpt lat="45.91137" lon="-0.93821">
        <ele>10</ele>
        <time>2024-10-14T18:33:57Z</time>
      </trkpt>
      <trkpt lat="45.91111" lon="-0.93826">
        <ele>10</ele>
        <time>2024-10-14T18:34:32Z</time>
      </trkpt>
      <trkpt lat="45.9103" lon="-0.93831">
        <ele>11</ele>
        <time>2024-10-14T18:36:21Z</time>
      </trkpt>
      <trkpt lat="45.91015" lon="-0.93835">
        <ele>11</ele>
        <time>2024-10-14T18:36:41Z</time>
      </trkpt>
      <trkpt lat="45.90982" lon="-0.93852">
        <ele>11</ele>
        <time>2024-10-14T18:37:28Z</time>
      </trkpt>
      <trkpt lat="45.90967" lon="-0.93863">
        <ele>11</ele>
        <time>2024-10-14T18:37:50Z</time>
      </trkpt>
      <trkpt lat="45.90941" lon="-0.93881">
        <ele>11</ele>
        <time>2024-10-14T18:38:29Z</time>
      </trkpt>
      <trkpt lat="45.90853" lon="-0.93969">
        <ele>11</ele>
        <time>2024-10-14T18:40:52Z</time>
      </trkpt>
      <trkpt lat="45.90841" lon="-0.93977">
        <ele>11</ele>
        <time>2024-10-14T18:41:09Z</time>
      </trkpt>
      <trkpt lat="45.90836" lon="-0.9395">
        <ele>10</ele>
        <time>2024-10-14T18:41:35Z</time>
      </trkpt>
      <trkpt lat="45.90828" lon="-0.9395">
        <ele>10</ele>
        <time>2024-10-14T18:41:46Z</time>
      </trkpt>
      <trkpt lat="45.90779" lon="-0.9392">
        <ele>10</ele>
        <time>2024-10-14T18:42:57Z</time>
      </trkpt>
      <trkpt lat="45.90751" lon="-0.93909">
        <ele>10</ele>
        <time>2024-10-14T18:43:36Z</time>
      </trkpt>
      <trkpt lat="45.90723" lon="-0.93902">
        <ele>10</ele>
        <time>2024-10-14T18:44:14Z</time>
      </trkpt>
      <trkpt lat="45.90691" lon="-0.93902">
        <ele>11</ele>
        <time>2024-10-14T18:44:57Z</time>
      </trkpt>
      <trkpt lat="45.90642" lon="-0.93904">
        <ele>12</ele>
        <time>2024-10-14T18:46:02Z</time>
      </trkpt>
      <trkpt lat="45.90605" lon="-0.93902">
        <ele>12</ele>
        <time>2024-10-14T18:46:51Z</time>
      </trkpt>
      <trkpt lat="45.90584" lon="-0.93905">
        <ele>13</ele>
        <time>2024-10-14T18:47:20Z</time>
      </trkpt>
      <trkpt lat="45.90546" lon="-0.93918">
        <ele>12</ele>
        <time>2024-10-14T18:48:12Z</time>
      </trkpt>
      <trkpt lat="45.90521" lon="-0.93936">
        <ele>11</ele>
        <time>2024-10-14T18:48:49Z</time>
      </trkpt>
      <trkpt lat="45.90479" lon="-0.93973">
        <ele>11</ele>
        <time>2024-10-14T18:49:55Z</time>
      </trkpt>
      <trkpt lat="45.90437" lon="-0.93997">
        <ele>11</ele>
        <time>2024-10-14T18:50:55Z</time>
      </trkpt>
      <trkpt lat="45.90401" lon="-0.94011">
        <ele>11</ele>
        <time>2024-10-14T18:51:45Z</time>
      </trkpt>
      <trkpt lat="45.90377" lon="-0.94023">
        <ele>10</ele>
        <time>2024-10-14T18:52:19Z</time>
      </trkpt>
      <trkpt lat="45.90295" lon="-0.9408">
        <ele>9</ele>
        <time>2024-10-14T18:54:20Z</time>
      </trkpt>
      <trkpt lat="45.90264" lon="-0.94098">
        <ele>9</ele>
        <time>2024-10-14T18:55:05Z</time>
      </trkpt>
      <trkpt lat="45.90242" lon="-0.94109">
        <ele>9</ele>
        <time>2024-10-14T18:55:36Z</time>
      </trkpt>
      <trkpt lat="45.90151" lon="-0.94133">
        <ele>6</ele>
        <time>2024-10-14T18:57:39Z</time>
      </trkpt>
      <trkpt lat="45.90133" lon="-0.94136">
        <ele>6</ele>
        <time>2024-10-14T18:58:04Z</time>
      </trkpt>
      <trkpt lat="45.90112" lon="-0.94257">
        <ele>5</ele>
        <time>2024-10-14T18:59:59Z</time>
      </trkpt>
      <trkpt lat="45.90088" lon="-0.94374">
        <ele>6</ele>
        <time>2024-10-14T19:01:53Z</time>
      </trkpt>
      <trkpt lat="45.90093" lon="-0.94377">
        <ele>6</ele>
        <time>2024-10-14T19:02:00Z</time>
      </trkpt>
      <trkpt lat="45.90145" lon="-0.9441">
        <ele>8</ele>
        <time>2024-10-14T19:03:16Z</time>
      </trkpt>
      <trkpt lat="45.90174" lon="-0.94429">
        <ele>8</ele>
        <time>2024-10-14T19:03:58Z</time>
      </trkpt>
      <trkpt lat="45.90205" lon="-0.94454">
        <ele>8</ele>
        <time>2024-10-14T19:04:46Z</time>
      </trkpt>
      <trkpt lat="45.9023" lon="-0.94476">
        <ele>7</ele>
        <time>2024-10-14T19:05:25Z</time>
      </trkpt>
      <trkpt lat="45.9024" lon="-0.94493">
        <ele>7</ele>
        <time>2024-10-14T19:05:46Z</time>
      </trkpt>
      <trkpt lat="45.90239" lon="-0.94519">
        <ele>7</ele>
        <time>2024-10-14T19:06:10Z</time>
      </trkpt>
      <trkpt lat="45.90228" lon="-0.94624">
        <ele>10</ele>
        <time>2024-10-14T19:07:48Z</time>
      </trkpt>
      <trkpt lat="45.9018" lon="-0.94831">
        <ele>10</ele>
        <time>2024-10-14T19:11:11Z</time>
      </trkpt>
      <trkpt lat="45.90163" lon="-0.94877">
        <ele>10</ele>
        <time>2024-10-14T19:11:59Z</time>
      </trkpt>
      <trkpt lat="45.90161" lon="-0.94896">
        <ele>10</ele>
        <time>2024-10-14T19:12:17Z</time>
      </trkpt>
      <trkpt lat="45.90158" lon="-0.94897">
        <ele>10</ele>
        <time>2024-10-14T19:12:21Z</time>
      </trkpt>
      <trkpt lat="45.90163" lon="-0.94948">
        <ele>10</ele>
        <time>2024-10-14T19:13:09Z</time>
      </trkpt>
      <trkpt lat="45.90167" lon="-0.94963">
        <ele>9</ele>
        <time>2024-10-14T19:13:24Z</time>
      </trkpt>
      <trkpt lat="45.90181" lon="-0.94997">
        <ele>9</ele>
        <time>2024-10-14T19:14:01Z</time>
      </trkpt>
      <trkpt lat="45.90213" lon="-0.95063">
        <ele>10</ele>
        <time>2024-10-14T19:15:15Z</time>
      </trkpt>
      <trkpt lat="45.90215" lon="-0.95069">
        <ele>10</ele>
        <time>2024-10-14T19:15:22Z</time>
      </trkpt>
      <trkpt lat="45.90201" lon="-0.95087">
        <ele>9</ele>
        <time>2024-10-14T19:15:47Z</time>
      </trkpt>
      <trkpt lat="45.90193" lon="-0.95119">
        <ele>10</ele>
        <time>2024-10-14T19:16:18Z</time>
      </trkpt>
      <trkpt lat="45.9017" lon="-0.95222">
        <ele>10</ele>
        <time>2024-10-14T19:17:59Z</time>
      </trkpt>
      <trkpt lat="45.90134" lon="-0.95206">
        <ele>10</ele>
        <time>2024-10-14T19:18:49Z</time>
      </trkpt>
      <trkpt lat="45.90129" lon="-0.95203">
        <ele>10</ele>
        <time>2024-10-14T19:18:56Z</time>
      </trkpt>
      <trkpt lat="45.90086" lon="-0.9525">
        <ele>9</ele>
        <time>2024-10-14T19:20:08Z</time>
      </trkpt>
      <trkpt lat="45.901" lon="-0.95278">
        <ele>9</ele>
        <time>2024-10-14T19:20:40Z</time>
      </trkpt>
      <trkpt lat="45.90152" lon="-0.95386">
        <ele>9</ele>
        <time>2024-10-14T19:22:42Z</time>
      </trkpt>
      <trkpt lat="45.90159" lon="-0.95401">
        <ele>9</ele>
        <time>2024-10-14T19:22:59Z</time>
      </trkpt>
      <trkpt lat="45.90168" lon="-0.95409">
        <ele>9</ele>
        <time>2024-10-14T19:23:13Z</time>
      </trkpt>
      <trkpt lat="45.90171" lon="-0.95405">
        <ele>9</ele>
        <time>2024-10-14T19:23:19Z</time>
      </trkpt>
      <trkpt lat="45.90176" lon="-0.95402">
        <ele>9</ele>
        <time>2024-10-14T19:23:26Z</time>
      </trkpt>
      <trkpt lat="45.90183" lon="-0.95402">
        <ele>9</ele>
        <time>2024-10-14T19:23:35Z</time>
      </trkpt>
      <trkpt lat="45.9019" lon="-0.95409">
        <ele>9</ele>
        <time>2024-10-14T19:23:47Z</time>
      </trkpt>
      <trkpt lat="45.90192" lon="-0.95417">
        <ele>9</ele>
        <time>2024-10-14T19:23:54Z</time>
      </trkpt>
      <trkpt lat="45.90191" lon="-0.95418">
        <ele>9</ele>
        <time>2024-10-14T19:23:56Z</time>
      </trkpt>
      <trkpt lat="45.90192" lon="-0.95417">
        <ele>9</ele>
        <time>2024-10-14T19:23:58Z</time>
      </trkpt>
      <trkpt lat="45.90209" lon="-0.95411">
        <ele>9</ele>
        <time>2024-10-14T19:24:21Z</time>
      </trkpt>
      <trkpt lat="45.90221" lon="-0.95409">
        <ele>9</ele>
        <time>2024-10-14T19:24:37Z</time>
      </trkpt>
      <trkpt lat="45.9023" lon="-0.95408">
        <ele>9</ele>
        <time>2024-10-14T19:24:49Z</time>
      </trkpt>
      <trkpt lat="45.90251" lon="-0.9541">
        <ele>9</ele>
        <time>2024-10-14T19:25:17Z</time>
      </trkpt>
      <trkpt lat="45.90249" lon="-0.95436">
        <ele>9</ele>
        <time>2024-10-14T19:25:42Z</time>
      </trkpt>
      <trkpt lat="45.90252" lon="-0.9545">
        <ele>9</ele>
        <time>2024-10-14T19:25:55Z</time>
      </trkpt>
      <trkpt lat="45.90258" lon="-0.95454">
        <ele>10</ele>
        <time>2024-10-14T19:26:04Z</time>
      </trkpt>
      <trkpt lat="45.90317" lon="-0.95473">
        <ele>10</ele>
        <time>2024-10-14T19:27:25Z</time>
      </trkpt>
      <trkpt lat="45.90325" lon="-0.95485">
        <ele>10</ele>
        <time>2024-10-14T19:27:40Z</time>
      </trkpt>
      <trkpt lat="45.90347" lon="-0.95493">
        <ele>10</ele>
        <time>2024-10-14T19:28:10Z</time>
      </trkpt>
      <trkpt lat="45.90349" lon="-0.95507">
        <ele>10</ele>
        <time>2024-10-14T19:28:24Z</time>
      </trkpt>
      <trkpt lat="45.9036" lon="-0.95517">
        <ele>10</ele>
        <time>2024-10-14T19:28:41Z</time>
      </trkpt>
      <trkpt lat="45.90396" lon="-0.9553">
        <ele>10</ele>
        <time>2024-10-14T19:29:31Z</time>
      </trkpt>
      <trkpt lat="45.90421" lon="-0.95539">
        <ele>10</ele>
        <time>2024-10-14T19:30:05Z</time>
      </trkpt>
      <trkpt lat="45.90426" lon="-0.95534">
        <ele>10</ele>
        <time>2024-10-14T19:30:13Z</time>
      </trkpt>
      <trkpt lat="45.90429" lon="-0.9552">
        <ele>10</ele>
        <time>2024-10-14T19:30:27Z</time>
      </trkpt>
      <trkpt lat="45.90439" lon="-0.95466">
        <ele>10</ele>
        <time>2024-10-14T19:31:19Z</time>
      </trkpt>
      <trkpt lat="45.90443" lon="-0.9546">
        <ele>10</ele>
        <time>2024-10-14T19:31:26Z</time>
      </trkpt>
      <trkpt lat="45.90507" lon="-0.95428">
        <ele>9</ele>
        <time>2024-10-14T19:32:57Z</time>
      </trkpt>
      <trkpt lat="45.90521" lon="-0.95418">
        <ele>10</ele>
        <time>2024-10-14T19:33:18Z</time>
      </trkpt>
      <trkpt lat="45.90557" lon="-0.95379">
        <ele>11</ele>
        <time>2024-10-14T19:34:18Z</time>
      </trkpt>
      <trkpt lat="45.90576" lon="-0.95371">
        <ele>11</ele>
        <time>2024-10-14T19:34:44Z</time>
      </trkpt>
      <trkpt lat="45.9058" lon="-0.95372">
        <ele>11</ele>
        <time>2024-10-14T19:34:50Z</time>
      </trkpt>
      <trkpt lat="45.90583" lon="-0.95375">
        <ele>11</ele>
        <time>2024-10-14T19:34:55Z</time>
      </trkpt>
      <trkpt lat="45.90586" lon="-0.95377">
        <ele>11</ele>
        <time>2024-10-14T19:34:59Z</time>
      </trkpt>
      <trkpt lat="45.9059" lon="-0.95389">
        <ele>11</ele>
        <time>2024-10-14T19:35:11Z</time>
      </trkpt>
      <trkpt lat="45.906" lon="-0.95435">
        <ele>10</ele>
        <time>2024-10-14T19:35:56Z</time>
      </trkpt>
      <trkpt lat="45.90605" lon="-0.95499">
        <ele>10</ele>
        <time>2024-10-14T19:36:56Z</time>
      </trkpt>
      <trkpt lat="45.90635" lon="-0.95595">
        <ele>10</ele>
        <time>2024-10-14T19:38:34Z</time>
      </trkpt>
      <trkpt lat="45.90641" lon="-0.95647">
        <ele>9</ele>
        <time>2024-10-14T19:39:22Z</time>
      </trkpt>
      <trkpt lat="45.90643" lon="-0.95684">
        <ele>9</ele>
        <time>2024-10-14T19:39:57Z</time>
      </trkpt>
      <trkpt lat="45.90645" lon="-0.95718">
        <ele>9</ele>
        <time>2024-10-14T19:40:29Z</time>
      </trkpt>
      <trkpt lat="45.90642" lon="-0.95742">
        <ele>10</ele>
        <time>2024-10-14T19:40:51Z</time>
      </trkpt>
      <trkpt lat="45.90632" lon="-0.95793">
        <ele>9</ele>
        <time>2024-10-14T19:41:40Z</time>
      </trkpt>
      <trkpt lat="45.90625" lon="-0.95833">
        <ele>9</ele>
        <time>2024-10-14T19:42:19Z</time>
      </trkpt>
      <trkpt lat="45.90621" lon="-0.95887">
        <ele>8</ele>
        <time>2024-10-14T19:43:09Z</time>
      </trkpt>
      <trkpt lat="45.90684" lon="-0.95891">
        <ele>7</ele>
        <time>2024-10-14T19:44:33Z</time>
      </trkpt>
      <trkpt lat="45.90742" lon="-0.95895">
        <ele>7</ele>
        <time>2024-10-14T19:45:51Z</time>
      </trkpt>
      <trkpt lat="45.90785" lon="-0.95897">
        <ele>7</ele>
        <time>2024-10-14T19:46:48Z</time>
      </trkpt>
      <trkpt lat="45.90823" lon="-0.95896">
        <ele>6</ele>
        <time>2024-10-14T19:47:39Z</time>
      </trkpt>
      <trkpt lat="45.90828" lon="-0.95889">
        <ele>6</ele>
        <time>2024-10-14T19:47:48Z</time>
      </trkpt>
      <trkpt lat="45.90839" lon="-0.95873">
        <ele>7</ele>
        <time>2024-10-14T19:48:09Z</time>
      </trkpt>
      <trkpt lat="45.90849" lon="-0.95868">
        <ele>7</ele>
        <time>2024-10-14T19:48:23Z</time>
      </trkpt>
      <trkpt lat="45.9085" lon="-0.95872">
        <ele>7</ele>
        <time>2024-10-14T19:48:27Z</time>
      </trkpt>
      <trkpt lat="45.90853" lon="-0.95884">
        <ele>7</ele>
        <time>2024-10-14T19:48:39Z</time>
      </trkpt>
      <trkpt lat="45.9086" lon="-0.95897">
        <ele>6</ele>
        <time>2024-10-14T19:48:54Z</time>
      </trkpt>
      <trkpt lat="45.90892" lon="-0.95939">
        <ele>7</ele>
        <time>2024-10-14T19:49:52Z</time>
      </trkpt>
      <trkpt lat="45.90895" lon="-0.95954">
        <ele>8</ele>
        <time>2024-10-14T19:50:07Z</time>
      </trkpt>
      <trkpt lat="45.90915" lon="-0.95959">
        <ele>8</ele>
        <time>2024-10-14T19:50:34Z</time>
      </trkpt>
      <trkpt lat="45.90951" lon="-0.95957">
        <ele>8</ele>
        <time>2024-10-14T19:51:22Z</time>
      </trkpt>
      <trkpt lat="45.90985" lon="-0.9596">
        <ele>8</ele>
        <time>2024-10-14T19:52:07Z</time>
      </trkpt>
      <trkpt lat="45.91022" lon="-0.95968">
        <ele>8</ele>
        <time>2024-10-14T19:52:57Z</time>
      </trkpt>
      <trkpt lat="45.91039" lon="-0.95974">
        <ele>9</ele>
        <time>2024-10-14T19:53:21Z</time>
      </trkpt>
      <trkpt lat="45.91054" lon="-0.9598">
        <ele>9</ele>
        <time>2024-10-14T19:53:41Z</time>
      </trkpt>
      <trkpt lat="45.91061" lon="-0.95959">
        <ele>9</ele>
        <time>2024-10-14T19:54:03Z</time>
      </trkpt>
      <trkpt lat="45.91064" lon="-0.95956">
        <ele>9</ele>
        <time>2024-10-14T19:54:08Z</time>
      </trkpt>
      <trkpt lat="45.91069" lon="-0.95953">
        <ele>8</ele>
        <time>2024-10-14T19:54:15Z</time>
      </trkpt>
      <trkpt lat="45.91213" lon="-0.95948">
        <ele>9</ele>
        <time>2024-10-14T19:57:27Z</time>
      </trkpt>
      <trkpt lat="45.91256" lon="-0.95946">
        <ele>10</ele>
        <time>2024-10-14T19:58:25Z</time>
      </trkpt>
      <trkpt lat="45.91301" lon="-0.95944">
        <ele>11</ele>
        <time>2024-10-14T19:59:25Z</time>
      </trkpt>
      <trkpt lat="45.91362" lon="-0.95944">
        <ele>10</ele>
        <time>2024-10-14T20:00:46Z</time>
      </trkpt>
      <trkpt lat="45.91366" lon="-0.95951">
        <ele>10</ele>
        <time>2024-10-14T20:00:55Z</time>
      </trkpt>
      <trkpt lat="45.9137" lon="-0.95954">
        <ele>10</ele>
        <time>2024-10-14T20:01:01Z</time>
      </trkpt>
      <trkpt lat="45.9137" lon="-0.95954">
        <ele>10</ele>
        <time>2024-10-14T20:01:01Z</time>
      </trkpt>
      <trkpt lat="45.91497" lon="-0.96043">
        <ele>12</ele>
        <time>2024-10-14T20:04:09Z</time>
      </trkpt>
      <trkpt lat="45.91526" lon="-0.96064">
        <ele>12</ele>
        <time>2024-10-14T20:04:53Z</time>
      </trkpt>
      <trkpt lat="45.91537" lon="-0.96066">
        <ele>12</ele>
        <time>2024-10-14T20:05:07Z</time>
      </trkpt>
      <trkpt lat="45.91537" lon="-0.96066">
        <ele>12</ele>
        <time>2024-10-14T20:05:07Z</time>
      </trkpt>
      <trkpt lat="45.91538" lon="-0.96066">
        <ele>12</ele>
        <time>2024-10-14T20:05:09Z</time>
      </trkpt>
      <trkpt lat="45.9168" lon="-0.96076">
        <ele>7</ele>
        <time>2024-10-14T20:08:18Z</time>
      </trkpt>
      <trkpt lat="45.91687" lon="-0.96076">
        <ele>6</ele>
        <time>2024-10-14T20:08:28Z</time>
      </trkpt>
      <trkpt lat="45.91687" lon="-0.96076">
        <ele>6</ele>
        <time>2024-10-14T20:08:28Z</time>
      </trkpt>
      <trkpt lat="45.91714" lon="-0.96072">
        <ele>3</ele>
        <time>2024-10-14T20:09:04Z</time>
      </trkpt>
      <trkpt lat="45.91715" lon="-0.9606">
        <ele>2</ele>
        <time>2024-10-14T20:09:15Z</time>
      </trkpt>
    </trkseg>
  </trk>
</gpx>